Theta_e
313 312 312 312 311 310 312 315 317 318 318 316 315 315 315 316 317 317 318 319 319 320 320 320 321 322 322 323 324 324 325 326 326 327 327 327 327 327 327 326 326 326 326 325 325 325 325 324 324 324 324 324 324 324 323 323 323 323 322 322 322 322 321 321 321 321 321 321 321 321 321 321 321 320 320 321 321 321 321 321 320 320 320 320 319
311 311 310 311 311 311 310 311 314 317 318 318 316 314 314 315 316 316 316 317 317 318 319 320 321 322 322 323 323 323 324 324 325 326 327 327 327 327 327 327 327 326 326 326 325 325 325 325 324 324 324 324 324 323 323 323 323 322 322 322 321 321 321 321 321 321 321 321 321 321 321 321 321 321 321 320 320 320 321 320 320 319 319 319 319
311 310 309 309 310 311 310 310 312 315 317 318 318 316 313 312 313 313 314 314 314 315 317 318 320 321 321 322 322 322 323 323 324 325 326 326 326 326 326 326 326 326 326 326 325 325 325 325 325 325 325 324 324 323 323 323 323 323 322 322 322 321 321 321 321 321 321 321 321 321 321 321 321 320 320 319 320 321 321 320 319 319 319 319 320
311 310 309 309 309 310 310 310 310 313 316 318 318 318 315 312 312 312 312 312 312 312 313 314 316 317 319 319 320 321 321 322 323 324 324 325 325 325 325 325 325 325 325 325 325 325 325 325 325 325 324 324 323 323 322 322 322 322 322 322 322 321 321 320 320 320 320 320 320 320 320 320 320 319 319 320 320 320 320 320 320 320 320 320 319
313 311 310 310 310 310 310 310 311 312 314 316 318 318 317 315 313 312 312 312 312 311 311 311 312 313 314 315 316 318 318 320 321 322 323 323 323 323 323 324 324 324 324 324 324 324 324 324 324 324 324 323 323 322 322 321 321 321 321 321 321 321 320 320 320 320 320 319 319 319 319 320 320 320 320 319 319 319 319 319 320 320 320 319 319
313 311 311 311 311 311 311 312 313 313 314 316 317 318 318 318 317 316 314 313 313 312 311 311 310 311 311 312 313 314 316 318 319 320 320 321 322 322 323 324 324 324 324 324 323 323 323 323 323 323 323 323 322 322 321 321 321 321 321 321 321 321 321 321 320 320 320 320 320 319 319 319 319 319 320 319 319 319 319 320 320 320 320 319 318
311 311 311 312 312 313 314 315 315 315 316 317 317 317 317 318 318 318 317 316 314 313 312 311 310 310 310 310 311 312 313 315 316 317 317 318 320 321 323 323 323 323 323 323 323 323 322 322 322 322 323 322 322 322 321 321 321 321 321 321 321 321 321 321 321 320 320 319 319 319 319 319 319 319 320 320 319 319 319 320 320 319 319 318 318
311 312 312 312 314 315 315 315 315 316 316 317 317 317 317 318 318 318 318 318 316 314 312 310 310 310 309 310 310 311 311 313 313 313 314 316 318 321 322 323 323 323 323 322 322 322 322 322 321 322 322 322 321 321 320 321 321 321 322 321 321 321 321 320 320 320 320 320 319 319 319 319 319 319 319 319 319 320 320 320 320 319 319 318 318
312 312 312 314 315 315 314 313 314 315 316 316 316 317 317 317 317 317 318 318 317 315 312 310 310 310 310 310 310 310 310 311 311 311 313 314 316 318 320 321 322 322 322 322 322 322 321 320 320 321 321 321 321 321 321 321 322 322 322 322 322 321 320 320 318 318 319 320 319 318 318 318 318 318 318 319 319 319 320 320 320 320 319 319 318
313 313 314 315 315 314 312 312 312 313 314 315 315 316 316 317 317 317 317 318 318 317 314 311 309 309 309 310 310 310 310 310 310 311 312 313 313 315 317 319 320 320 321 321 321 320 320 319 319 319 319 320 321 322 322 322 322 321 321 321 321 321 321 320 319 318 319 319 319 319 319 319 319 319 319 320 320 319 319 319 319 319 319 318 317
314 314 315 315 314 313 312 312 312 312 313 314 314 314 315 316 317 317 317 317 317 317 317 315 312 310 309 309 309 310 310 310 311 311 311 311 312 312 314 317 318 319 319 319 319 319 319 319 320 320 320 320 320 320 321 321 321 321 322 322 322 322 322 321 319 318 319 319 319 319 319 319 320 320 320 320 320 320 319 319 319 319 318 317 317
315 314 314 313 312 312 312 312 312 312 312 312 313 313 313 314 315 316 317 317 317 317 316 316 316 314 312 311 310 309 309 309 310 310 311 311 311 311 312 314 316 317 317 316 316 317 317 318 319 319 320 321 321 322 322 321 320 320 321 321 321 322 323 322 320 318 318 319 320 319 319 319 319 319 321 320 320 319 319 319 319 318 318 317 316
313 312 312 311 311 311 311 312 312 312 312 312 312 312 312 312 313 314 314 315 316 316 316 316 316 316 315 315 314 313 312 310 309 309 309 309 310 310 310 311 312 313 313 313 314 315 315 316 316 317 318 319 320 320 320 320 320 320 321 322 322 322 322 322 320 319 319 319 320 320 319 319 320 321 321 320 319 320 320 319 319 318 317 315 314
311 311 311 310 310 310 311 311 312 312 312 312 312 312 312 312 312 312 313 313 314 315 315 316 316 316 316 315 315 315 315 314 312 310 309 308 308 308 309 309 310 310 311 313 314 315 315 315 315 316 316 317 317 317 317 319 320 320 321 323 322 322 322 322 321 321 320 320 320 320 320 320 321 322 320 319 319 320 320 319 318 316 315 314 314
310 310 310 310 310 310 310 311 311 311 312 312 312 312 312 312 312 311 312 312 312 312 313 314 314 315 316 316 316 316 316 315 314 313 311 309 308 307 308 308 309 308 309 311 312 313 313 314 314 314 315 317 319 319 319 319 319 319 320 321 322 322 322 322 321 319 318 319 320 320 320 321 321 321 320 320 320 320 319 318 316 315 314 314 314
310 310 310 310 310 310 310 310 310 310 311 311 311 312 312 312 311 311 311 311 311 312 312 312 312 312 313 314 314 316 316 315 315 315 314 312 310 308 308 308 308 309 308 309 309 309 311 312 314 314 314 316 316 317 319 319 319 319 319 320 321 321 321 320 318 317 317 318 319 319 320 321 321 320 320 320 320 319 318 316 314 313 313 313 313
310 310 310 310 309 309 309 310 310 310 310 310 310 310 310 311 310 310 311 311 311 312 311 311 312 311 312 311 312 313 314 314 314 314 314 314 313 312 310 309 308 309 309 309 308 308 309 310 311 312 313 313 314 314 316 317 319 320 320 321 322 321 320 317 316 317 319 319 319 320 321 320 320 319 319 319 319 318 317 315 314 314 313 313 313
309 309 309 309 309 308 308 308 308 309 309 309 309 308 309 309 309 309 310 310 310 311 311 311 312 311 311 311 311 311 311 311 311 311 312 313 313 313 313 312 311 310 309 309 308 308 308 308 308 310 310 311 312 314 314 316 317 317 317 319 320 320 320 318 316 316 318 319 319 320 320 319 318 318 317 317 317 317 317 316 315 314 314 314 314
306 307 307 308 308 308 308 307 307 307 308 307 307 306 306 307 307 308 308 309 309 310 310 311 311 311 311 311 311 311 311 311 310 310 311 311 311 312 312 312 313 313 311 309 309 309 309 308 308 308 308 308 310 313 314 315 317 317 317 317 318 319 319 319 317 316 317 318 318 318 319 318 318 317 316 316 317 317 317 316 315 314 314 314 313
303 304 305 306 307 307 307 307 307 307 307 306 306 305 305 305 305 305 306 307 308 308 309 309 310 310 311 311 311 311 311 310 310 309 310 310 310 311 311 311 313 313 311 310 309 309 309 309 308 308 307 307 308 310 313 314 315 316 317 317 318 318 317 316 315 316 318 319 318 318 319 319 318 317 316 316 317 316 316 315 314 313 313 313 312
300 301 302 303 304 306 306 307 307 307 307 306 306 306 305 305 305 305 305 304 305 306 307 308 309 309 309 309 310 310 310 310 310 309 309 309 309 309 310 310 311 311 311 310 310 309 309 308 308 308 307 306 306 308 310 313 314 315 316 317 318 317 315 314 314 316 318 318 316 316 316 317 318 317 316 316 316 316 314 313 312 312 312 312 311
299 299 299 299 300 302 303 304 305 306 306 305 305 304 304 304 304 304 303 303 303 304 304 305 307 308 309 309 309 309 309 309 310 310 309 309 309 308 309 309 309 309 310 311 310 309 308 308 307 307 306 306 306 306 307 310 312 313 314 314 314 313 313 315 317 316 315 314 313 313 314 315 316 315 315 316 316 315 314 312 311 311 312 312 311
298 297 297 297 297 298 298 300 301 301 302 302 301 301 301 301 301 301 301 301 301 301 302 303 304 305 306 308 308 308 309 309 309 309 309 309 309 309 308 308 307 307 308 310 310 308 308 307 307 306 306 306 306 306 306 308 311 313 313 312 312 313 314 315 316 314 313 313 314 314 314 314 315 315 315 315 316 315 313 312 311 311 311 311 310
296 296 296 296 296 296 296 297 297 297 298 298 298 298 298 298 298 299 299 299 299 300 300 301 302 302 303 304 305 306 307 308 308 308 308 309 309 309 308 307 307 306 307 308 308 307 307 307 306 305 306 306 307 307 307 308 310 312 313 313 313 312 312 313 313 313 313 314 314 314 314 315 316 316 316 316 315 314 313 312 311 311 310 309 308
295 295 295 295 295 295 296 296 296 296 296 297 297 297 297 298 298 298 298 298 299 299 299 300 300 300 300 301 302 302 303 305 306 307 308 308 308 308 309 308 307 307 307 307 308 308 308 307 306 305 305 306 307 307 307 308 309 310 310 311 312 311 311 312 312 313 314 314 313 313 314 314 315 315 315 314 313 312 311 311 310 310 309 307 304
295 295 295 295 295 296 296 296 296 296 296 296 296 297 297 297 297 298 298 298 298 298 299 299 299 299 300 300 300 301 301 302 304 305 306 307 307 308 308 308 308 308 308 308 308 308 308 308 307 306 305 306 308 308 307 308 310 311 310 310 311 312 312 312 312 312 313 313 313 313 313 313 313 313 312 311 310 310 309 309 309 308 307 306 302
295 295 295 295 295 296 296 296 296 296 296 296 296 297 297 297 297 297 297 297 298 298 298 298 298 299 299 299 299 299 300 301 302 303 304 305 306 307 308 308 308 309 309 309 308 308 308 308 307 306 305 305 307 308 308 308 310 311 311 310 310 311 312 312 311 311 311 312 312 312 312 311 311 311 311 310 308 308 307 308 308 307 306 303 299
295 295 295 295 295 295 296 296 296 296 297 297 297 297 297 297 297 297 297 297 297 297 297 297 298 298 298 298 298 299 299 300 301 302 303 303 304 305 306 307 308 308 309 309 309 309 308 308 308 307 306 305 305 307 308 309 309 310 310 310 310 311 312 312 311 311 311 311 311 310 311 310 310 310 310 309 308 307 306 306 306 304 302 300 297
295 295 295 295 295 295 295 295 295 296 296 296 296 296 296 296 297 297 297 297 296 297 297 297 297 297 297 297 298 298 298 299 300 302 302 303 304 304 305 306 307 307 308 308 308 308 308 308 308 307 306 305 304 305 306 308 308 309 309 309 309 310 311 311 311 311 311 309 309 309 309 309 309 308 308 307 306 305 305 305 303 300 297 296 295
294 294 294 294 294 294 294 295 295 295 295 295 296 296 296 296 296 296 297 296 296 296 296 296 296 296 296 297 297 297 297 298 300 301 302 302 303 304 304 305 306 306 307 307 307 307 307 307 307 306 306 305 304 304 304 305 306 307 308 308 308 309 309 310 310 310 310 309 309 309 308 308 307 307 307 306 305 304 303 302 301 299 295 294 293
293 293 293 294 294 293 294 294 294 294 294 294 294 295 296 296 296 296 296 296 296 296 296 296 296 296 296 296 296 296 296 297 299 301 302 303 303 303 304 304 305 305 306 305 305 305 305 305 305 305 304 303 303 303 303 303 303 305 305 306 307 307 308 308 308 308 308 308 308 308 307 307 306 306 306 306 305 303 301 298 297 296 294 292 292
293 293 293 293 293 293 293 293 293 293 294 294 294 294 294 295 295 295 295 296 296 296 296 297 297 296 296 296 296 296 296 296 297 299 302 304 304 304 304 304 304 305 304 303 303 304 303 303 303 303 302 301 301 301 301 301 302 302 303 304 305 306 306 306 306 307 307 307 307 307 307 306 305 304 304 304 303 301 299 297 295 293 291 289 289
292 292 292 292 292 293 293 293 293 293 294 294 294 294 294 294 295 295 295 295 295 296 296 297 297 297 297 297 296 297 297 296 296 297 300 303 304 304 304 304 304 304 304 303 303 303 303 302 302 302 300 300 300 299 299 300 300 301 301 302 303 304 304 305 305 305 306 306 305 305 305 305 304 302 301 301 300 299 298 296 294 292 289 288 287
291 291 291 292 292 292 292 292 293 293 293 293 294 294 294 294 295 295 295 295 295 295 296 296 297 297 297 297 297 297 297 297 297 297 299 301 303 304 304 304 304 303 303 302 302 302 302 301 301 300 300 299 299 298 298 299 299 299 300 301 302 303 303 303 303 304 304 304 303 303 302 302 302 301 300 299 298 296 295 293 292 290 289 288 286
290 290 290 290 291 291 291 291 292 292 293 293 293 293 294 294 294 294 295 295 296 296 296 296 297 297 297 297 297 297 297 297 297 298 299 301 302 303 303 303 303 303 303 303 302 301 301 300 299 299 298 298 298 298 298 299 299 299 299 300 301 302 302 302 302 302 302 302 302 301 301 300 300 299 299 298 297 296 294 292 291 290 289 287 286
289 289 289 290 290 290 290 290 291 291 291 291 292 292 292 292 292 291 292 292 293 295 296 296 296 296 297 297 297 297 297 296 296 297 298 299 300 301 301 302 302 302 302 302 302 301 300 299 298 298 297 297 298 298 298 299 299 299 299 299 300 300 301 301 301 301 301 300 300 300 299 299 297 296 295 295 295 295 293 291 290 289 289 287 286
288 288 289 289 289 289 289 290 290 290 289 289 289 289 289 289 288 288 288 289 289 291 293 293 293 293 294 294 294 295 296 296 296 296 296 297 298 299 299 300 300 300 300 300 299 299 298 297 297 297 297 297 298 298 298 298 298 298 298 298 298 299 299 300 299 299 299 299 298 298 298 297 295 294 293 293 292 291 290 289 288 288 287 287 287
287 287 287 288 288 288 288 288 288 288 287 287 286 285 285 285 285 285 286 286 286 287 288 289 289 289 289 290 290 291 292 293 294 294 295 295 295 296 297 298 298 297 297 297 296 296 296 296 296 296 297 297 297 298 298 298 298 298 298 297 297 298 298 298 298 297 297 297 297 297 296 295 294 293 292 292 291 289 289 288 287 287 286 286 286
286 286 286 287 287 287 287 287 287 286 285 285 284 284 284 284 284 284 284 285 285 285 286 287 287 287 287 287 288 289 289 290 291 291 292 293 293 294 295 296 296 295 295 295 295 295 295 296 296 296 296 296 297 297 298 298 298 297 297 297 296 297 297 297 297 296 296 296 295 295 294 293 292 292 291 290 289 289 288 287 287 286 286 286 286
284 285 285 285 286 286 286 286 286 285 284 284 284 284 284 284 284 284 284 284 284 284 285 286 286 286 286 286 287 287 288 288 289 289 290 290 291 292 293 294 295 295 294 294 294 294 295 295 295 295 295 295 295 295 296 296 296 296 296 296 296 296 296 296 296 296 295 295 294 293 292 291 291 290 290 289 288 288 288 287 286 286 287 286 284
283 283 284 284 284 284 285 285 285 284 284 284 284 284 284 283 283 283 282 282 282 282 283 285 286 286 286 287 287 286 286 287 287 287 288 288 288 289 290 291 292 293 293 293 293 294 294 294 294 294 295 295 294 294 294 294 295 295 295 295 295 295 295 295 294 294 294 293 293 292 291 290 290 289 288 288 288 288 287 287 286 286 285 284 283
281 282 282 283 283 283 283 283 284 284 284 284 284 283 282 282 281 281 281 281 281 282 282 284 285 285 285 285 285 284 284 285 285 285 286 286 287 287 288 289 290 290 291 292 292 292 293 293 293 293 293 293 293 293 293 293 294 294 294 294 294 294 294 294 293 293 293 292 291 290 290 289 288 288 287 287 287 286 286 286 286 285 284 283 283
280 280 281 281 281 280 281 281 281 281 282 282 281 281 281 280 280 280 280 281 281 281 281 282 283 283 283 283 283 283 284 284 284 284 284 284 285 286 286 287 288 289 290 290 291 291 292 292 292 292 292 292 292 292 292 292 292 292 293 293 293 293 293 292 292 292 291 290 290 289 289 288 287 287 286 286 286 286 286 286 285 283 283 283 284
279 278 278 278 278 278 278 278 278 279 279 279 279 279 279 279 279 279 279 279 279 279 279 280 281 281 282 282 282 283 283 283 283 283 283 283 284 284 285 286 287 287 288 289 290 290 290 291 291 291 291 291 291 291 291 291 291 291 291 292 292 292 292 292 291 291 291 290 289 288 287 287 286 286 286 286 286 286 285 284 283 283 283 284 284
277 277 277 277 277 277 277 277 277 277 276 276 276 277 277 277 278 278 278 278 278 278 279 279 280 280 281 281 281 281 282 282 282 283 283 283 283 284 284 284 285 285 286 287 288 288 288 289 289 289 290 290 290 290 290 290 290 290 290 290 290 290 290 290 290 290 289 289 288 287 287 286 286 286 286 286 286 285 284 283 283 284 285 285 284
277 277 276 276 276 276 276 276 276 275 275 275 276 276 277 277 277 277 277 277 278 278 278 279 279 279 280 280 280 280 280 281 281 282 282 282 283 283 283 283 283 284 284 285 285 286 286 287 287 287 288 288 288 288 289 289 289 289 289 289 289 289 288 288 288 288 288 287 287 286 286 286 285 286 286 285 284 284 283 284 284 285 285 285 284
277 277 276 276 276 276 275 275 275 276 276 276 276 276 276 276 277 277 277 277 277 278 278 278 278 279 279 279 279 279 279 279 280 280 280 281 281 282 282 282 282 282 283 283 283 284 284 285 286 286 286 287 287 287 287 287 287 287 287 287 287 287 287 287 287 287 286 286 286 286 286 286 286 285 284 284 283 283 284 284 285 285 285 284 284
277 277 277 276 276 276 276 276 277 277 277 277 276 276 276 276 277 277 277 277 278 278 278 278 278 278 278 278 278 278 278 278 278 278 279 279 279 280 280 280 281 281 281 282 282 283 283 284 284 285 285 285 285 286 286 286 286 286 286 285 285 285 285 285 285 285 285 285 285 285 285 285 285 284 284 284 284 284 284 285 285 285 284 284 283
277 277 277 277 277 277 277 277 277 277 277 277 277 277 277 277 277 277 278 278 278 278 277 277 278 278 278 278 277 277 277 277 277 277 278 278 278 278 279 279 279 280 280 280 281 281 282 282 283 283 283 283 284 284 284 284 284 284 284 284 284 284 284 284 284 284 284 284 284 284 284 284 284 284 284 284 284 284 284 284 284 284 283 283 282
277 277 277 277 277 277 277 276 276 276 276 276 276 277 277 277 277 277 278 278 278 278 278 278 278 278 278 278 277 277 277 277 277 277 277 277 277 278 278 278 279 279 279 280 280 280 281 281 281 281 281 281 282 282 282 282 282 283 283 283 283 283 283 283 283 283 283 283 284 284 284 284 284 284 284 284 284 284 284 284 283 283 282 282 281
276 276 277 277 277 276 276 276 276 276 276 276 276 276 276 276 276 277 277 277 277 277 278 278 278 278 278 278 277 277 277 276 276 276 276 276 276 276 277 277 278 278 279 279 279 279 279 279 280 280 280 280 280 280 281 281 281 282 282 282 282 282 282 282 282 282 283 283 283 283 283 283 284 284 284 284 284 284 283 283 282 282 281 281 280
Wind_Speed
23 24 24 24 24 23 21 20 20 20 20 20 21 22 24 25 27 28 29 30 31 32 34 35 37 38 39 40 41 42 43 43 43 44 44 45 45 46 46 47 48 49 49 50 51 51 52 52 52 52 50 50 51 51 51 51 50 49 49 48 48 48 48 47 50 53 52 49 47 45 42 39 38 37 36 34 35 36 35 32 30 32 32 30 30
26 27 27 27 27 26 25 22 21 21 22 22 21 21 21 22 24 26 28 29 30 31 33 34 35 36 37 38 39 40 41 42 43 44 45 45 45 46 46 47 48 49 49 51 51 51 52 53 53 52 51 52 52 50 50 50 49 49 48 48 47 47 47 48 49 51 51 49 46 44 43 41 40 38 36 38 38 35 33 32 32 33 34 34 33
28 30 30 29 29 28 28 26 23 22 22 23 23 22 20 20 20 23 25 26 27 29 30 30 31 33 34 35 36 37 38 40 41 43 44 44 45 45 46 47 48 49 50 51 51 51 52 53 53 52 51 52 52 50 50 50 49 49 48 47 47 47 47 48 49 50 50 49 46 45 44 42 41 41 41 40 36 33 34 35 35 34 34 34 33
29 32 33 32 31 29 29 28 25 24 23 23 23 23 22 20 19 20 21 23 24 25 26 27 28 29 31 32 33 34 36 37 38 40 42 42 44 44 45 46 47 48 49 50 50 50 51 52 53 52 51 52 52 51 50 50 50 50 49 48 48 48 48 47 48 50 50 49 48 45 44 43 43 42 39 36 35 36 39 39 36 33 33 33 32
31 34 35 34 32 31 30 29 27 25 24 24 24 23 22 21 21 21 20 21 23 23 24 25 25 27 28 29 31 32 33 34 36 38 39 40 42 43 43 45 45 46 48 48 49 49 50 51 52 51 51 52 52 52 51 51 50 50 49 48 47 47 48 47 47 48 49 51 50 47 45 42 39 38 35 35 38 40 41 40 34 30 31 32 31
33 34 34 33 32 31 29 27 26 26 25 26 25 24 23 22 22 22 21 21 22 23 25 25 25 26 26 27 28 30 31 33 34 36 37 38 40 42 43 44 44 45 46 47 48 48 49 49 50 51 52 53 53 52 51 49 48 47 47 47 46 46 47 47 46 45 47 50 50 49 46 43 40 39 38 39 42 40 37 35 31 29 30 31 30
32 32 32 32 31 28 26 25 25 25 25 25 26 25 25 24 24 24 23 23 23 23 24 25 25 25 25 26 27 28 30 32 33 34 36 37 39 41 42 43 44 44 45 46 47 48 48 48 49 50 51 52 52 50 49 47 45 45 44 44 44 45 47 47 46 45 45 45 46 47 47 45 43 41 41 41 41 39 36 34 32 33 34 33 32
30 29 31 31 29 26 25 25 24 23 23 24 24 24 24 24 25 25 25 26 25 24 24 25 26 26 25 26 26 27 29 30 31 33 34 36 38 40 42 43 44 45 45 46 46 47 48 48 49 50 50 50 49 47 45 44 43 44 43 42 42 43 43 43 43 46 47 45 44 44 44 45 44 42 42 43 42 40 38 37 36 37 36 35 32
30 30 31 29 28 28 28 27 27 25 24 24 23 23 23 24 25 25 26 26 27 27 26 26 27 27 26 26 27 28 29 30 30 31 33 35 37 39 41 42 43 44 45 46 46 47 48 47 47 48 49 49 47 45 44 42 41 42 43 43 43 42 42 41 39 42 46 46 44 44 45 45 44 43 43 43 42 41 40 39 38 37 36 34 31
31 31 29 28 29 30 30 30 29 28 26 25 24 25 25 25 25 25 25 25 26 27 27 28 28 29 29 29 29 30 30 30 31 32 33 34 36 38 39 41 42 43 44 45 46 47 48 47 46 45 45 46 47 46 46 44 42 42 42 41 41 39 40 42 38 37 41 44 44 45 47 47 45 45 45 43 42 42 40 38 36 34 33 32 29
30 29 29 30 31 31 33 33 32 29 27 26 25 25 26 26 26 26 26 26 26 26 27 28 29 29 31 32 32 33 32 32 32 33 33 34 36 37 39 40 41 42 44 45 46 47 47 46 46 45 45 45 44 44 44 44 43 44 44 44 44 43 43 42 37 35 38 41 42 43 46 46 45 45 46 46 45 43 39 36 34 32 31 30 28
29 31 31 32 32 32 32 32 30 29 27 26 26 25 26 26 27 27 27 27 27 28 28 29 29 29 30 31 33 34 34 34 35 35 35 36 37 38 39 40 42 43 44 45 46 46 46 45 46 46 46 47 46 44 43 44 44 43 42 41 42 46 47 44 37 35 38 40 40 41 42 43 43 43 43 41 40 37 35 34 34 31 29 28 28
31 33 34 33 31 29 28 27 26 25 25 26 25 25 25 26 26 27 28 28 29 29 29 30 30 29 30 31 32 33 33 33 34 35 37 38 39 39 40 40 41 42 43 44 44 44 44 44 45 45 45 45 46 44 43 44 44 42 42 43 43 44 46 44 40 38 39 40 41 43 43 42 43 42 37 32 31 32 33 34 33 30 28 29 29
33 33 32 30 27 25 24 24 24 24 24 24 24 25 25 25 25 25 26 28 29 30 30 31 31 31 31 32 33 33 33 31 31 32 35 37 39 39 40 40 41 42 42 43 44 44 44 44 45 46 45 44 44 41 41 42 42 41 41 44 45 45 45 46 45 43 42 42 43 44 44 43 43 41 36 32 31 32 32 31 29 28 27 28 27
32 30 29 26 24 24 23 23 23 23 23 23 23 24 24 25 25 25 25 27 28 28 29 30 31 32 32 33 34 35 34 32 30 30 32 34 36 38 39 40 41 42 43 43 44 45 45 45 45 45 45 45 44 42 40 41 42 41 40 41 44 46 47 45 42 41 43 45 46 46 44 43 41 39 37 35 32 30 29 27 25 24 24 24 25
30 29 28 26 25 24 25 25 24 24 23 23 23 23 24 24 25 25 26 27 27 28 29 29 30 31 32 33 34 36 36 34 32 32 32 32 33 35 37 38 40 42 43 42 42 43 44 45 45 45 44 44 44 43 40 39 40 40 42 44 44 44 44 41 38 39 42 45 46 46 44 42 39 38 37 33 30 30 29 27 26 25 25 24 26
28 28 28 28 27 26 26 27 27 26 25 25 24 24 24 24 25 25 26 27 28 29 29 30 30 31 31 31 32 34 35 34 33 33 33 33 33 34 35 36 38 41 42 42 42 42 42 43 43 44 44 44 43 41 38 38 41 42 45 48 45 42 42 40 39 40 42 43 45 46 45 44 40 37 34 30 30 32 32 31 32 31 29 28 29
26 27 27 28 28 28 27 27 28 27 27 26 26 25 25 25 25 26 27 27 28 28 29 29 30 30 30 30 30 32 33 32 31 31 31 32 32 33 34 34 37 40 41 41 41 41 42 42 41 41 42 42 41 40 37 37 40 41 42 44 43 43 42 39 38 40 41 42 44 44 43 41 37 33 30 30 32 34 34 35 34 32 31 31 31
25 26 26 27 27 28 28 27 27 27 26 26 25 25 25 25 25 26 27 28 29 29 29 29 29 28 28 29 28 29 30 29 28 27 27 28 29 30 31 32 34 37 38 38 40 40 41 42 40 40 40 39 39 39 37 37 40 41 40 41 44 46 43 38 37 40 41 42 43 42 40 38 35 31 30 33 35 36 35 35 33 32 31 30 30
24 25 26 26 26 26 27 27 27 26 26 26 26 25 25 25 25 25 26 28 29 30 30 30 29 29 28 27 27 27 27 27 25 25 24 24 25 26 28 30 32 33 33 34 37 38 38 39 40 39 39 38 37 38 37 37 40 41 41 43 45 44 41 39 39 41 41 40 40 39 37 36 37 36 34 36 38 37 36 35 33 30 29 28 29
23 24 25 25 25 25 25 26 26 26 26 27 27 26 26 26 26 26 26 27 28 29 29 30 30 30 29 28 27 26 25 25 24 23 23 22 22 22 25 27 29 30 31 33 34 36 36 37 37 38 38 36 35 36 37 38 38 39 41 43 41 38 38 39 39 38 37 35 35 37 38 39 42 43 40 38 39 39 38 35 32 30 29 29 30
24 24 24 24 24 25 25 25 26 26 26 27 27 27 26 26 27 27 27 27 27 28 28 29 29 30 29 29 29 28 26 25 24 24 23 22 21 20 22 24 26 28 30 33 34 35 35 35 35 35 36 35 34 33 33 35 36 38 40 41 39 37 38 39 36 33 33 34 36 39 40 42 44 44 41 38 38 38 38 35 32 31 31 31 32
28 26 25 24 24 24 25 25 25 25 26 26 27 27 26 26 26 26 27 28 28 28 28 28 29 30 29 29 29 29 29 28 27 26 25 23 21 20 20 21 22 25 29 32 34 34 34 35 34 33 33 33 33 31 29 29 31 34 35 35 35 36 37 37 34 33 36 40 41 40 38 39 42 42 40 40 40 39 38 34 32 32 32 32 33
30 29 28 27 26 25 25 26 26 26 25 26 26 26 26 27 26 26 27 27 28 29 29 29 30 30 30 30 29 29 30 30 30 29 28 26 25 23 21 20 20 22 26 30 32 34 34 35 34 33 32 31 31 29 27 26 28 31 32 32 31 32 35 35 35 36 40 44 46 45 42 41 41 42 43 43 43 41 38 35 33 33 34 34 33
30 31 31 30 29 29 28 27 27 27 27 27 27 28 28 29 29 29 29 28 29 30 30 30 30 31 32 32 31 30 30 30 30 30 29 29 28 27 25 24 22 21 24 27 30 32 34 34 34 33 33 32 31 30 29 27 26 27 27 27 27 30 33 35 36 38 41 42 43 45 45 44 43 43 44 45 44 42 39 37 36 35 36 35 32
31 31 32 32 32 32 32 31 30 29 27 27 28 29 30 31 32 32 32 31 31 32 32 33 33 33 33 33 33 33 32 31 30 30 29 30 30 29 28 28 26 24 24 26 27 30 32 33 34 34 33 32 32 31 31 29 27 26 26 27 28 31 32 34 36 39 39 38 37 38 39 41 42 42 43 43 43 41 39 38 36 36 36 35 32
30 31 30 31 31 31 31 31 32 32 31 31 30 30 30 31 33 34 34 34 35 35 36 36 36 35 36 36 36 36 35 34 32 32 32 32 31 30 29 29 28 27 27 27 28 29 31 32 33 33 34 34 33 33 33 32 30 30 29 29 31 33 34 35 38 40 39 39 39 37 37 38 40 39 40 40 40 39 38 36 36 36 37 35 33
31 31 31 31 32 32 32 32 31 31 32 32 33 33 34 34 35 35 36 36 37 37 38 39 39 38 38 38 38 38 38 36 35 35 35 34 34 33 32 30 28 28 28 28 29 30 31 32 32 32 33 35 35 35 35 35 34 33 33 32 33 34 34 36 39 42 42 42 41 40 40 40 40 39 39 40 40 39 38 37 37 37 37 35 34
33 33 34 34 34 35 36 37 36 36 35 34 34 33 33 34 36 37 37 36 37 38 39 40 40 39 39 40 39 39 40 39 37 37 37 36 35 35 34 32 30 28 27 28 28 30 31 32 31 31 32 34 36 37 37 36 36 36 36 36 36 35 34 34 36 40 42 42 42 41 40 40 40 40 40 40 40 39 38 38 38 37 35 34 34
33 34 34 35 35 35 36 37 38 38 39 39 38 37 35 34 34 35 36 36 37 37 38 39 39 39 40 40 39 39 40 40 38 37 37 37 37 36 36 35 32 30 27 26 28 30 31 32 32 32 31 31 34 36 38 38 38 39 38 38 38 37 37 37 37 38 39 40 40 40 39 38 38 39 40 41 42 41 41 41 40 38 35 34 34
35 35 35 36 36 36 37 37 38 38 38 39 40 41 41 39 37 36 36 36 37 37 37 38 39 38 39 40 40 39 40 40 39 38 38 38 37 37 37 36 35 32 29 26 27 30 31 32 33 32 31 31 32 34 36 38 39 40 40 39 39 39 40 40 39 39 40 41 42 41 39 38 39 41 43 45 45 44 43 41 40 38 36 36 36
36 36 37 37 37 38 39 39 39 40 40 39 39 40 42 44 43 41 38 37 37 38 38 38 38 38 38 39 39 40 39 39 38 39 38 38 37 37 37 36 35 34 30 27 28 31 32 32 33 33 32 33 33 33 34 36 38 39 39 40 40 40 41 40 39 39 40 43 44 43 40 40 43 45 46 46 46 46 44 42 40 39 37 35 34
36 38 39 39 39 40 40 41 41 41 41 41 41 40 41 42 45 46 44 41 39 38 38 38 38 38 38 38 39 39 39 38 37 38 38 38 37 37 36 36 36 34 31 29 31 33 33 34 35 34 33 34 34 34 34 35 37 38 38 39 40 40 40 40 39 38 40 42 44 44 42 43 45 45 46 46 46 46 45 43 42 40 38 35 34
36 38 39 41 42 42 42 42 42 42 41 41 41 41 41 41 42 44 46 46 44 42 40 39 38 38 38 39 39 39 39 38 37 37 37 38 38 37 36 37 37 35 33 32 34 35 35 35 36 36 35 35 35 35 35 35 36 37 38 38 38 39 40 40 40 40 41 42 44 45 45 45 45 46 46 46 46 45 44 44 43 42 39 37 36
36 37 38 39 41 42 42 42 42 42 42 41 41 41 41 41 41 42 43 45 46 46 44 42 40 39 39 39 39 39 38 37 37 36 36 37 37 36 36 37 37 36 35 35 35 36 36 36 37 37 37 37 36 36 36 36 36 36 37 37 38 39 41 42 43 43 43 44 45 45 45 44 45 46 47 47 47 47 46 45 44 43 41 39 38
38 38 39 39 39 40 41 41 41 41 41 41 40 40 40 40 40 40 40 40 43 45 46 45 43 41 40 40 39 40 39 37 36 35 35 35 35 34 35 36 37 36 36 36 36 36 36 36 36 37 37 37 38 38 37 37 37 36 36 37 38 39 41 42 43 44 44 44 45 44 43 44 45 45 45 46 47 47 46 46 45 43 41 39 38
39 39 39 39 40 40 40 40 40 39 39 39 39 39 39 39 39 38 39 39 41 42 43 44 42 41 41 40 38 39 40 40 39 37 36 34 33 33 33 34 34 35 36 36 35 36 36 36 36 36 37 37 37 37 37 37 37 37 37 37 38 39 41 42 42 42 43 43 43 43 43 44 44 44 44 45 45 45 44 44 43 41 39 39 38
39 39 39 38 39 39 40 40 40 39 39 38 37 37 37 38 38 38 38 39 39 38 39 40 39 39 39 38 36 36 37 38 39 39 39 37 35 34 34 34 33 33 34 33 33 33 34 35 34 35 36 36 36 37 37 37 37 37 38 38 38 39 40 40 41 41 41 42 42 43 42 43 43 43 44 45 45 44 43 43 42 40 40 39 39
37 37 37 36 37 37 38 38 38 38 37 38 37 36 36 36 36 36 37 37 38 38 39 39 39 38 37 36 34 32 33 34 35 36 37 37 36 35 34 34 34 33 33 32 31 30 32 32 32 32 34 35 35 36 37 37 37 37 38 38 39 39 40 40 41 41 41 42 42 42 42 42 43 43 44 44 44 43 42 41 41 40 40 40 38
37 37 36 35 34 34 34 35 35 35 36 36 37 37 37 37 36 36 36 36 38 39 39 39 39 38 36 35 33 31 31 33 34 34 34 34 34 33 33 33 33 33 33 32 30 30 30 31 31 31 31 32 33 34 35 36 37 37 38 38 39 39 39 40 40 41 41 42 42 42 42 42 43 44 44 44 43 42 40 40 40 39 39 38 37
35 36 35 34 33 32 32 32 32 33 34 35 36 37 37 36 36 35 35 35 36 38 39 40 40 39 37 36 33 30 30 32 33 33 33 33 34 33 33 33 32 32 32 32 31 30 30 30 30 30 31 31 32 33 34 35 36 37 37 37 37 38 38 39 39 40 40 41 41 41 42 43 43 43 43 42 41 39 38 38 39 38 37 37 35
33 34 34 33 32 32 32 32 32 32 33 34 35 35 34 33 33 33 34 35 36 37 39 40 40 39 37 35 32 30 29 31 32 33 34 34 35 34 34 34 33 33 33 32 31 31 30 30 30 30 30 31 31 32 33 34 35 36 36 37 37 37 37 38 39 39 40 40 40 41 41 42 42 42 42 41 40 38 38 38 39 38 37 36 33
30 31 31 30 30 29 29 29 29 30 30 31 31 31 31 32 32 33 33 34 34 34 35 36 37 36 36 35 33 32 32 32 32 32 33 33 34 35 35 34 34 33 33 32 31 30 30 30 30 30 30 31 31 32 33 33 34 34 35 35 35 36 36 37 38 39 39 39 39 40 40 41 41 41 40 40 38 38 38 39 39 37 35 33 31
26 25 25 24 23 23 23 23 23 24 25 25 26 27 28 29 30 30 30 30 30 30 31 33 34 34 35 35 34 33 32 32 31 31 31 32 33 33 33 32 32 31 31 30 30 29 29 28 28 28 28 29 30 31 31 32 32 32 32 33 33 34 35 37 38 39 39 39 39 39 39 40 40 40 39 38 37 37 38 38 37 35 33 31 30
21 21 20 19 19 18 19 19 20 21 22 23 25 25 25 26 27 27 27 28 28 29 30 31 31 32 32 32 31 30 30 29 29 29 30 30 30 30 30 29 29 29 28 28 28 27 27 27 26 26 26 27 27 28 29 29 29 29 30 30 31 33 34 35 36 37 37 38 38 39 39 39 39 38 38 37 36 37 37 36 35 33 32 31 30
16 15 15 14 14 15 16 17 18 20 21 21 22 22 22 22 23 23 24 25 26 27 27 28 29 29 29 29 29 28 27 26 26 26 26 26 26 26 26 26 26 26 26 26 25 25 25 24 24 24 24 24 24 25 25 26 26 27 27 29 30 31 32 33 34 34 35 36 37 37 38 38 37 37 36 36 36 35 35 35 33 32 30 29 28
10 10 10 11 12 14 15 15 15 16 16 16 16 17 17 18 18 19 19 20 21 22 23 24 25 25 25 25 25 25 24 24 24 23 23 23 23 22 22 22 22 22 22 22 22 22 22 21 21 21 20 21 21 22 22 23 23 24 25 26 27 28 29 30 31 32 32 33 34 34 34 35 35 35 35 35 35 35 34 33 32 30 29 28 27
10 10 10 11 11 11 11 11 11 11 11 11 12 12 13 14 15 15 16 16 17 19 20 21 21 22 22 22 22 22 22 22 22 21 21 20 20 20 19 19 19 19 19 19 19 19 18 18 18 18 18 18 18 19 19 19 20 20 21 21 22 23 24 25 26 28 28 29 29 29 30 31 33 34 34 34 34 34 33 31 30 29 28 27 26
12 13 13 12 13 13 13 13 13 13 13 13 14 14 15 16 16 17 17 17 18 19 20 21 22 22 22 22 21 21 21 21 20 20 19 19 19 18 18 17 17 17 16 16 16 16 16 15 15 15 15 15 15 15 15 15 15 16 16 17 18 18 19 21 22 23 24 25 25 27 29 31 32 32 33 33 32 31 30 29 28 28 27 26 26
13 13 13 13 14 14 14 15 15 15 15 16 17 18 18 19 20 20 20 20 21 22 23 23 24 24 24 24 23 23 22 21 20 20 19 18 17 16 15 15 14 14 14 13 13 13 12 11 10 10 10 10 10 11 11 12 12 13 13 14 15 16 17 18 19 20 21 24 26 28 29 30 30 30 30 30 29 28 27 27 26 26 26 26 26
13 13 13 13 13 14 14 14 15 15 16 17 18 18 19 20 20 20 20 21 22 22 22 23 23 23 24 24 24 24 23 22 22 21 20 18 18 17 15 14 12 12 11 10 9 8 7 6 5 4 4 5 6 7 8 9 10 11 11 12 12 13 14 16 18 21 23 25 27 27 27 27 27 26 26 27 27 26 25 25 24 24 25 25 25
Wind_Direction
327 329 329 330 332 334 332 325 320 318 317 311 301 295 291 284 279 277 276 275 275 274 274 273 272 271 270 269 268 268 268 268 267 266 265 265 265 264 264 263 262 262 262 261 260 259 259 259 259 259 259 259 260 259 259 258 258 257 256 256 255 253 252 252 254 260 264 266 267 269 269 269 268 268 265 265 270 271 263 255 257 259 258 260 261
320 324 324 324 324 326 329 327 320 314 314 313 307 299 292 289 287 283 281 280 278 276 276 275 275 273 271 269 268 267 267 267 267 266 265 265 265 265 265 264 263 263 262 262 261 260 260 259 260 260 259 258 258 258 258 258 258 258 257 256 256 255 253 253 255 258 262 263 264 265 266 267 267 266 266 269 271 266 256 256 262 262 260 260 260
315 319 320 320 319 319 322 325 322 314 311 310 310 304 293 287 287 286 286 286 283 280 278 276 275 273 271 269 267 266 265 265 265 265 265 265 266 265 265 265 264 264 263 263 262 261 260 260 260 260 258 257 257 257 257 259 258 257 257 257 258 257 256 256 256 258 260 262 263 265 266 266 267 268 269 269 265 258 258 264 266 263 260 259 255
313 316 317 317 316 316 317 319 319 315 311 307 307 308 302 291 284 285 288 289 288 286 283 279 275 273 271 269 268 266 265 264 264 264 264 264 265 265 265 265 264 264 264 264 264 262 261 261 261 260 258 257 257 257 257 257 257 257 257 258 259 260 260 259 259 259 261 262 264 265 266 267 268 268 266 264 260 260 265 267 265 263 261 257 253
310 312 313 313 314 315 316 317 316 314 311 307 304 304 304 299 292 287 286 288 289 288 286 283 279 275 273 272 271 269 267 266 264 264 264 264 265 265 265 265 265 265 265 265 265 264 263 263 262 261 258 258 259 260 259 259 258 259 260 260 261 262 262 262 261 261 261 262 265 265 266 267 267 264 263 264 264 265 266 264 262 262 261 256 253
307 308 310 312 314 317 320 320 318 316 314 311 306 301 299 299 297 293 289 286 284 284 284 282 280 278 277 276 274 272 271 269 266 265 265 264 264 264 264 264 264 264 264 264 264 264 264 264 263 262 261 261 262 263 262 261 261 261 261 262 263 263 262 262 261 261 261 263 264 262 261 264 265 263 263 265 264 264 262 260 260 261 259 254 253
305 306 310 313 317 321 323 321 319 318 316 313 310 305 300 296 294 294 292 286 282 280 280 280 279 278 277 277 275 274 272 270 268 268 266 265 264 264 263 264 264 265 265 265 264 264 264 264 264 264 263 264 265 265 264 263 263 263 263 263 264 262 260 259 259 259 260 263 263 260 258 260 262 262 263 263 261 260 258 256 258 260 258 255 257
307 308 310 314 318 320 320 318 314 311 308 306 305 303 300 295 291 289 288 287 285 281 277 275 275 274 274 276 276 275 272 270 271 270 268 267 266 265 265 265 266 266 266 266 265 265 265 265 265 264 264 265 266 267 266 266 266 266 265 265 263 260 258 258 259 259 259 261 263 262 259 259 260 261 262 261 257 257 259 257 258 261 260 261 263
308 310 310 313 316 317 317 316 312 306 301 299 298 295 293 291 290 287 286 286 287 286 281 274 270 268 269 272 273 273 273 272 272 270 270 270 269 267 266 265 265 266 266 266 265 265 265 266 265 264 265 267 268 269 269 267 266 266 266 265 263 260 260 260 259 257 257 259 260 260 257 256 256 255 256 257 257 258 260 259 258 259 260 262 262
308 310 311 312 313 314 316 316 313 307 302 298 295 291 288 286 286 286 286 285 284 285 284 280 273 269 267 267 267 268 269 272 273 271 271 272 271 270 268 265 265 265 264 264 265 265 266 266 267 266 266 267 268 269 268 267 266 267 268 265 262 260 259 258 256 255 254 255 256 256 257 256 255 254 254 257 259 258 259 260 259 258 257 258 257
308 310 310 309 310 312 314 315 313 310 305 300 295 290 287 285 284 284 284 284 282 280 281 281 280 277 274 271 269 267 266 267 270 271 272 272 272 272 270 268 266 265 264 264 264 266 267 268 269 270 270 269 268 268 266 266 267 268 268 266 263 261 259 255 254 254 252 253 256 256 256 257 258 258 259 260 260 259 260 260 257 254 254 254 253
308 308 308 309 310 311 312 312 311 309 306 303 298 294 290 287 286 284 282 282 281 279 279 280 280 281 280 279 276 273 271 269 269 270 271 271 271 271 269 267 266 265 264 264 264 264 265 266 266 267 268 269 270 270 268 268 267 265 265 264 262 261 260 255 254 254 250 251 255 255 254 255 256 258 261 263 261 259 257 255 253 252 252 251 254
306 306 308 310 310 309 307 305 304 303 304 304 302 301 299 295 292 289 286 283 281 280 280 280 280 280 280 280 280 279 278 277 275 273 272 271 271 271 270 268 266 267 267 266 266 266 265 266 266 266 265 264 265 265 264 267 268 265 262 262 260 260 260 256 256 259 254 251 253 253 251 252 254 258 263 263 258 253 251 251 251 250 250 254 260
305 305 307 309 309 306 303 300 299 298 299 301 302 303 304 303 300 295 291 288 285 283 281 280 279 279 279 279 279 279 279 280 279 276 274 271 271 271 272 272 271 270 269 267 267 268 267 266 266 267 267 267 266 265 264 265 266 264 262 262 261 261 259 255 254 259 257 253 254 255 255 257 259 259 260 260 255 252 251 250 250 252 255 260 261
305 306 307 308 307 306 305 303 302 300 298 298 299 300 301 302 302 300 297 294 291 289 286 284 282 281 280 281 280 280 280 282 281 279 277 274 270 268 268 269 270 271 270 267 265 266 266 266 267 268 269 270 270 270 269 267 265 265 263 262 261 260 258 254 254 259 258 255 256 259 261 264 264 257 254 256 255 251 249 247 249 254 256 254 251
304 305 306 308 310 310 309 308 308 307 305 302 300 299 299 298 298 298 297 296 295 293 291 289 286 284 283 283 283 282 283 285 286 284 284 282 279 274 270 268 269 270 271 270 267 266 266 265 266 267 268 268 268 268 267 269 269 267 265 263 262 261 261 259 259 261 259 256 257 261 263 265 264 254 249 250 249 247 245 242 241 241 240 241 242
300 301 304 308 312 315 314 313 313 313 313 311 308 307 305 303 303 302 299 297 296 295 294 292 291 290 289 288 288 286 286 289 291 289 289 289 289 286 283 279 276 274 273 272 270 268 267 264 262 264 265 266 267 266 265 267 268 267 266 266 261 258 260 262 260 260 260 259 259 260 261 262 259 250 244 243 244 245 243 240 238 236 236 240 241
300 301 303 306 311 316 318 318 318 317 318 318 318 318 317 315 314 313 309 305 301 299 298 295 294 295 295 294 294 292 290 292 295 293 292 292 291 290 290 289 286 283 281 280 278 275 273 270 264 261 262 264 266 266 265 266 267 267 269 268 263 259 261 263 258 256 257 260 261 261 261 258 250 242 243 246 247 246 244 244 243 240 240 244 244
304 303 304 306 309 313 315 317 319 320 320 322 324 326 327 326 323 322 319 316 311 308 305 301 297 297 298 298 298 298 296 297 299 298 296 295 293 290 289 288 287 287 286 286 285 283 281 278 273 267 264 263 263 263 263 264 266 267 267 265 262 261 264 265 262 260 260 259 260 262 263 257 244 241 249 251 247 245 245 245 244 242 241 244 243
304 305 305 305 305 307 309 311 313 316 318 320 324 328 331 331 330 329 327 324 320 317 315 311 306 303 303 302 301 302 302 303 305 304 301 298 296 292 287 285 284 285 286 284 284 283 281 280 278 274 270 265 262 260 259 260 263 265 266 264 261 261 265 265 262 264 266 263 258 259 261 255 246 246 252 251 245 243 241 238 238 239 240 242 241
301 302 303 302 302 303 303 305 307 309 312 314 316 321 325 327 328 329 329 328 326 324 322 319 314 310 309 309 307 309 311 310 309 309 307 304 303 297 290 285 283 282 281 279 278 278 278 278 278 278 276 271 266 261 257 256 258 260 262 264 265 266 266 263 259 259 263 264 264 263 262 256 249 246 247 247 245 242 238 234 233 234 235 238 238
301 301 301 300 300 300 300 302 303 304 307 308 309 312 316 318 321 323 324 326 327 327 327 325 320 316 314 315 317 319 320 317 313 312 311 311 310 306 299 292 287 282 278 276 275 276 277 278 278 279 279 277 273 266 259 255 256 258 259 261 264 264 262 260 259 261 264 264 263 262 259 255 251 245 242 244 245 242 238 235 232 230 233 237 238
302 303 303 303 303 302 302 302 302 302 303 304 305 307 310 312 314 316 319 321 323 325 327 328 326 323 321 322 323 326 326 324 321 320 319 316 313 311 307 300 294 287 282 279 278 278 278 279 279 279 280 279 277 273 266 258 255 257 259 260 260 260 259 257 258 261 263 260 256 253 251 252 251 248 247 249 248 244 240 236 234 233 234 235 237
300 302 305 307 307 307 307 306 306 306 305 303 303 305 308 310 311 313 316 318 320 322 324 325 327 328 327 326 328 330 331 330 329 330 327 322 315 312 310 306 301 294 288 284 283 282 280 279 278 279 279 278 275 273 269 263 257 255 256 258 260 261 260 259 257 259 260 257 252 247 245 245 246 248 251 250 246 241 237 235 235 236 234 233 234
301 302 305 309 310 311 311 310 309 308 308 307 307 307 308 310 311 312 314 316 317 318 320 322 323 325 327 326 327 331 332 333 335 335 333 327 321 317 314 311 307 302 296 291 288 286 283 280 276 274 273 273 272 269 266 263 260 257 254 254 256 257 256 256 256 257 257 256 253 250 247 245 243 246 248 245 239 235 233 231 232 233 232 231 229
304 305 307 310 311 312 311 310 310 310 309 309 309 308 309 309 310 311 313 314 315 315 316 318 319 321 322 322 323 326 328 332 336 336 333 330 327 324 320 315 312 308 302 297 293 290 287 284 278 272 269 269 270 269 266 263 261 259 256 253 253 253 251 249 250 252 253 254 255 255 253 250 248 248 246 241 235 233 232 232 231 231 230 229 224
306 307 308 309 309 309 308 307 307 309 310 311 310 309 309 309 309 309 311 313 314 314 314 315 316 318 318 318 319 320 322 326 332 332 330 330 329 326 323 320 316 310 304 300 296 291 288 286 282 276 270 266 266 266 265 264 261 256 254 252 253 254 253 251 251 252 255 257 256 255 253 249 247 248 246 240 236 234 233 234 234 232 229 225 220
309 308 309 309 309 309 310 310 310 309 309 309 309 309 309 310 309 308 310 312 313 312 312 312 314 315 315 314 315 315 315 320 325 326 326 328 327 325 324 322 317 312 306 300 296 291 288 286 283 279 272 267 266 265 263 263 261 257 255 254 254 255 256 256 254 252 253 253 252 250 248 245 243 242 240 236 233 231 231 233 233 230 226 221 216
311 311 312 313 312 313 313 313 314 314 312 310 308 307 306 307 306 305 306 309 310 310 309 309 310 312 312 311 312 311 310 313 318 319 321 323 322 321 321 320 317 312 306 300 294 290 288 286 284 281 275 270 269 269 268 266 263 260 258 257 256 255 254 254 253 252 250 249 247 246 246 244 242 239 236 232 229 229 231 232 230 225 220 217 216
309 309 310 311 310 310 310 310 311 312 312 311 309 306 304 303 303 302 302 303 305 306 306 306 307 308 308 307 308 308 308 309 310 312 313 315 316 316 317 316 315 312 306 299 293 288 286 285 284 281 277 273 270 271 271 271 268 265 262 259 257 255 253 253 253 253 253 251 249 247 245 245 245 243 240 235 231 229 229 228 225 221 216 214 214
307 308 309 309 310 310 309 308 308 309 308 309 309 307 305 302 301 302 302 303 303 303 303 304 305 306 306 305 305 305 305 306 307 307 307 308 309 310 311 312 311 310 306 299 291 287 285 283 282 280 278 274 271 269 271 272 271 269 267 263 259 255 253 254 255 254 253 252 249 245 243 246 249 249 245 239 234 230 225 220 217 215 213 212 212
307 308 309 309 310 309 309 308 309 308 308 308 309 308 308 305 303 302 302 303 303 303 303 303 303 304 305 304 304 303 303 303 303 303 303 304 305 305 306 307 306 306 304 297 289 286 284 282 281 280 278 276 274 272 271 270 270 270 268 267 264 260 257 257 257 256 255 251 245 241 245 251 252 248 242 237 232 227 221 216 212 210 209 209 209
306 307 308 308 308 307 307 307 307 307 307 307 307 307 307 307 305 304 304 303 303 302 302 302 302 302 303 302 302 302 301 301 300 299 298 299 300 302 302 302 301 300 298 293 288 286 284 283 281 280 278 277 276 275 273 271 270 270 269 269 269 268 266 263 259 257 256 251 245 243 249 254 250 242 236 233 229 224 218 213 209 207 205 204 203
303 304 304 305 305 305 305 304 304 304 304 304 305 304 303 303 303 303 303 303 303 301 300 300 300 300 300 299 299 299 299 299 298 297 295 295 296 298 298 297 295 295 293 290 287 285 284 282 281 280 278 277 277 276 275 274 272 271 270 269 269 269 267 263 258 255 254 251 247 246 247 248 244 239 233 228 223 219 215 211 207 204 201 200 199
300 299 300 301 301 301 302 302 302 302 302 302 303 302 302 302 301 301 300 301 301 300 299 299 298 298 297 297 297 297 298 297 296 294 293 293 294 295 295 293 291 291 290 287 285 284 282 281 280 280 279 279 279 279 278 277 276 274 271 270 269 267 264 261 258 256 253 251 248 247 246 243 240 237 232 226 220 216 213 210 207 204 200 198 196
299 298 299 299 299 299 299 300 300 301 302 302 302 302 302 303 302 302 300 299 298 298 298 299 299 298 297 297 297 297 297 297 296 294 293 292 293 294 293 291 290 289 287 286 285 284 283 281 280 279 279 278 279 280 280 280 278 276 273 271 269 267 265 263 261 258 255 251 247 244 243 241 237 232 226 221 218 215 211 208 205 202 198 196 195
299 299 299 299 300 300 299 299 300 301 302 303 303 304 304 303 303 302 300 299 299 299 299 299 300 301 300 301 302 301 301 300 299 297 296 295 294 293 292 290 289 287 285 283 283 282 282 282 281 281 280 279 279 280 281 281 280 278 275 272 269 266 265 264 262 259 255 250 245 242 241 240 236 229 223 218 214 211 209 206 203 199 197 196 194
297 297 298 298 299 300 300 301 302 302 303 304 305 305 305 304 304 303 302 301 301 300 299 299 301 302 304 306 308 309 307 306 303 302 302 302 300 297 294 293 291 288 285 282 280 279 279 280 281 282 282 282 281 280 280 280 279 277 274 271 269 266 264 262 259 256 253 248 244 242 240 237 232 226 221 217 214 210 207 205 201 197 195 194 193
295 295 295 296 296 297 298 299 300 302 303 305 305 305 304 304 303 302 301 301 300 299 299 300 300 302 305 308 310 310 307 304 301 301 302 303 302 301 299 296 294 292 289 285 282 279 278 278 280 281 282 282 282 281 280 279 278 276 273 270 268 265 262 260 257 254 251 247 244 242 238 233 228 224 220 216 214 211 207 203 201 198 195 193 191
296 295 295 295 294 294 295 295 297 299 301 301 301 301 302 302 302 302 301 300 300 300 300 300 299 300 302 303 304 304 301 296 294 295 295 296 296 296 295 293 292 291 289 287 284 281 279 279 280 281 281 282 282 282 281 279 277 274 272 269 267 265 263 260 258 254 251 247 244 239 234 229 225 222 218 215 213 211 208 203 200 198 195 192 190
294 294 294 293 293 292 291 292 293 294 295 295 296 297 298 300 301 301 300 299 299 299 299 298 298 299 300 300 301 301 298 294 293 292 291 291 291 291 290 288 287 286 285 284 283 281 280 280 281 282 282 282 282 282 281 278 276 273 271 268 266 264 262 259 256 253 249 245 241 236 232 228 224 220 216 213 210 209 207 203 199 194 192 190 189
292 291 291 291 291 290 290 290 291 291 292 293 295 297 298 299 299 299 298 298 298 299 300 300 301 303 303 303 303 301 297 293 292 293 293 294 293 292 290 287 285 283 281 280 280 280 280 280 281 282 283 283 283 281 280 278 275 273 271 268 266 263 260 257 254 250 246 241 237 233 230 226 222 218 214 210 206 204 202 199 195 191 189 189 190
289 289 289 290 290 291 291 292 293 293 294 295 297 298 299 299 299 300 300 300 300 302 303 303 303 304 304 303 303 301 298 296 295 296 297 297 296 294 293 290 288 286 283 280 279 280 280 281 282 283 284 284 283 282 280 278 275 273 271 268 266 263 259 256 251 247 242 238 234 231 227 223 219 215 210 207 203 200 197 194 191 188 187 188 192
291 293 294 296 298 300 300 301 301 301 302 303 302 302 302 301 301 302 302 302 303 303 302 302 302 303 303 303 303 302 301 300 299 298 298 298 298 297 296 295 293 291 288 285 284 283 283 284 285 286 287 287 285 283 280 277 275 272 270 268 265 261 258 254 250 246 242 237 231 226 222 219 215 211 207 203 200 196 192 189 187 187 188 191 195
301 303 304 306 309 310 311 313 313 312 312 310 308 307 307 307 306 306 306 305 305 304 304 304 305 305 305 305 305 304 302 301 300 299 298 299 299 300 300 299 298 297 295 293 291 291 290 290 290 289 289 289 286 283 280 277 275 272 269 267 263 260 256 253 249 245 239 234 229 223 218 214 211 208 204 199 194 189 186 186 188 191 194 196 198
304 303 305 309 313 317 319 319 318 315 313 312 312 313 314 314 313 312 312 311 311 311 311 311 311 311 311 310 309 308 306 304 301 299 299 299 300 302 303 304 305 304 303 301 299 298 296 295 293 292 290 289 286 282 279 276 274 271 267 264 260 257 254 251 246 241 236 231 226 221 215 210 207 203 198 190 185 184 185 189 193 197 200 200 199
320 321 324 327 330 330 328 324 322 321 320 320 322 324 325 326 327 327 326 325 324 323 322 322 321 320 320 319 317 315 314 311 309 307 305 304 304 305 307 309 309 309 307 305 303 301 298 296 294 292 289 287 284 281 278 275 272 269 266 262 258 255 251 247 243 238 232 227 223 218 213 206 198 192 187 183 183 187 191 194 198 200 202 201 199
8 9 8 4 0 357 357 357 358 358 356 354 353 353 354 356 356 354 351 349 348 345 343 343 341 338 336 334 331 328 325 323 321 319 317 315 314 314 313 312 310 307 305 303 301 298 296 294 290 287 284 281 279 277 275 272 270 267 263 259 256 252 248 243 238 231 224 219 214 209 202 193 185 182 183 187 191 193 195 197 200 201 200 199 199
26 29 29 28 28 28 28 29 29 29 28 27 27 27 27 26 25 23 21 19 17 15 13 10 7 3 359 356 352 347 343 339 335 332 330 327 324 322 318 314 310 306 304 301 299 296 293 290 287 284 282 280 277 274 270 266 262 258 254 251 247 243 239 235 230 222 213 205 197 189 183 180 181 185 190 193 196 198 199 201 201 200 198 197 198
26 29 30 31 32 32 31 31 32 32 32 33 32 31 31 31 31 31 31 30 30 29 27 25 23 21 19 17 14 10 6 1 356 352 347 344 340 336 331 325 321 318 314 309 305 299 295 290 285 282 279 276 272 267 261 254 247 241 237 234 232 229 227 224 217 206 195 186 181 180 181 184 188 191 194 196 199 202 203 202 201 199 198 198 197
17 19 21 23 26 26 25 25 25 24 25 26 27 26 26 26 26 26 27 28 28 28 27 26 25 26 27 27 27 25 22 19 16 12 9 8 7 4 359 354 350 345 340 334 328 321 314 305 294 284 272 261 253 246 239 234 228 223 217 212 208 206 205 200 193 186 182 181 182 185 188 191 193 195 198 200 202 203 202 201 200 199 198 197 197